User: anonymous
Location: Hepcat Sky Observatory
(29.9800°N, 95.6500°W)
Time: 13:09:32
(UTC-05:00)
Language:

Cosmos 2151 Rocket - Orbit

View from above orbital plane
View from above orbital plane
View from above satellite
View from above satellite

Ground track
Ground track

The orbit data is extracted from the following two-line orbital elements,

1 21423U 91042B   14263.83724847  .00000304  00000-0  37829-4 0  8097
2 21423 082.4968 176.0426 0016169 286.8936 134.5603 14.79250329254670
Epoch (UTC): 20 September 2014 20:05:38
Eccentricity: 0.0016169
inclination: 82.4968°
perigee height: 620 km
apogee height: 643 km
right ascension of ascending node: 176.0426°
argument of perigee: 286.8936°
revolutions per day: 14.79250329
mean anomaly at epoch: 134.5603°
orbit number at epoch: 25467

The dashed part of the orbit path shows where the satellite is in the earth's shadow,  

DLR